Time,TemperatureF,DewpointF,PressureIn,WindDirection,WindDirectionDegrees,WindSpeedMPH,WindSpeedGustMPH,Humidity,HourlyPrecipIn,Conditions,Clouds,dailyrainin,SolarRadiationWatts/m^2,SoftwareType,DateUTC
2014-01-29 00:02:00,54.0,13.0,-100.00,North,-999,0.0,2.0,19,0.00,,,0.00,0.000000,,2014-01-29 08:02:00,
2014-01-29 00:12:00,54.0,13.0,-100.00,North,-999,0.0,2.0,19,0.00,,,0.00,0.000000,,2014-01-29 08:12:00,
2014-01-29 00:22:00,54.0,13.0,-100.00,North,-999,0.0,2.0,19,0.00,,,0.00,0.000000,,2014-01-29 08:22:00,
2014-01-29 00:52:00,53.0,14.0,-100.00,North,-999,0.0,0.0,21,0.00,,,0.00,0.000000,,2014-01-29 08:52:00,
2014-01-29 01:02:00,53.0,14.0,-100.00,North,-999,0.0,0.0,21,0.00,,,0.00,0.000000,,2014-01-29 09:02:00,
2014-01-29 01:11:00,53.0,14.0,-100.00,North,-999,0.0,0.0,21,0.00,,,0.00,0.000000,,2014-01-29 09:11:00,
2014-01-29 01:21:00,53.0,14.0,-100.00,North,-999,0.0,0.0,21,0.00,,,0.00,0.000000,,2014-01-29 09:21:00,
2014-01-29 01:53:00,56.0,16.0,-100.00,North,-999,0.0,2.0,20,0.00,,,0.00,0.000000,,2014-01-29 09:53:00,
2014-01-29 02:03:00,56.0,16.0,-100.00,North,-999,0.0,2.0,20,0.00,,,0.00,0.000000,,2014-01-29 10:03:00,
2014-01-29 02:12:00,56.0,16.0,-100.00,North,-999,0.0,2.0,20,0.00,,,0.00,0.000000,,2014-01-29 10:12:00,
2014-01-29 02:22:00,56.0,16.0,-100.00,North,-999,0.0,2.0,20,0.00,,,0.00,0.000000,,2014-01-29 10:22:00,
2014-01-29 02:52:00,52.0,13.0,-100.00,North,-999,0.0,0.0,21,0.00,,,0.00,0.000000,,2014-01-29 10:52:00,
2014-01-29 03:02:00,52.0,13.0,-100.00,North,-999,0.0,0.0,21,0.00,,,0.00,0.000000,,2014-01-29 11:02:00,
2014-01-29 03:12:00,52.0,13.0,-100.00,North,-999,0.0,0.0,21,0.00,,,0.00,0.000000,,2014-01-29 11:12:00,
2014-01-29 03:22:00,52.0,13.0,-100.00,North,-999,0.0,0.0,21,0.00,,,0.00,0.000000,,2014-01-29 11:22:00,
2014-01-29 03:53:00,55.0,14.0,-100.00,SW,236,2.0,4.0,19,0.00,,,0.00,0.000000,,2014-01-29 11:53:00,
2014-01-29 04:02:00,55.0,14.0,-100.00,SW,236,2.0,4.0,19,0.00,,,0.00,0.000000,,2014-01-29 12:02:00,
2014-01-29 04:12:00,55.0,14.0,-100.00,SW,236,2.0,4.0,19,0.00,,,0.00,0.000000,,2014-01-29 12:12:00,
2014-01-29 04:22:00,55.0,14.0,-100.00,SW,236,2.0,4.0,19,0.00,,,0.00,0.000000,,2014-01-29 12:22:00,
2014-01-29 04:53:00,51.0,12.0,-100.00,NW,320,2.0,4.0,21,0.00,,,-99.99,0.000000,,2014-01-29 12:53:00,
2014-01-29 05:02:00,51.0,12.0,-100.00,NW,320,2.0,4.0,21,0.00,,,-99.99,0.000000,,2014-01-29 13:02:00,
2014-01-29 05:12:00,51.0,12.0,-100.00,NW,320,2.0,4.0,21,0.00,,,-99.99,0.000000,,2014-01-29 13:12:00,
2014-01-29 05:21:00,51.0,12.0,-100.00,NW,320,2.0,4.0,21,0.00,,,-99.99,0.000000,,2014-01-29 13:21:00,
2014-01-29 05:52:00,53.0,14.0,-100.00,NNW,327,3.0,6.0,21,0.00,,,0.00,0.000000,,2014-01-29 13:52:00,
2014-01-29 06:02:00,53.0,14.0,-100.00,NNW,327,3.0,6.0,21,0.00,,,0.00,0.000000,,2014-01-29 14:02:00,
2014-01-29 06:12:00,53.0,14.0,-100.00,NNW,327,3.0,6.0,21,0.00,,,0.00,0.000000,,2014-01-29 14:12:00,
2014-01-29 06:21:00,53.0,14.0,-100.00,NNW,327,3.0,6.0,21,0.00,,,0.00,0.000000,,2014-01-29 14:21:00,
2014-01-29 06:52:00,53.0,15.0,-100.00,NNW,328,7.0,11.0,22,0.00,,,0.00,0.000000,,2014-01-29 14:52:00,
2014-01-29 07:02:00,53.0,15.0,-100.00,NNW,328,7.0,11.0,22,0.00,,,0.00,0.000000,,2014-01-29 15:02:00,
2014-01-29 07:11:00,53.0,15.0,-100.00,NNW,328,7.0,11.0,22,0.00,,,0.00,0.000000,,2014-01-29 15:11:00,
2014-01-29 07:21:00,53.0,15.0,-100.00,NNW,328,7.0,11.0,22,0.00,,,0.00,0.000000,,2014-01-29 15:21:00,
2014-01-29 09:22:00,61.0,17.0,-100.00,SSW,205,1.0,6.0,18,-99.99,,,0.00,187.000000,,2014-01-29 17:22:00,
2014-01-29 11:52:00,69.0,16.0,-100.00,North,-999,0.0,5.0,13,0.00,,,0.00,727.000000,,2014-01-29 19:52:00,
2014-01-29 12:01:00,69.0,16.0,-100.00,North,-999,0.0,5.0,13,0.00,,,0.00,727.000000,,2014-01-29 20:01:00,
2014-01-29 12:53:00,67.0,16.0,-100.00,SE,136,5.0,8.0,14,0.00,,,0.00,808.000000,,2014-01-29 20:53:00,
2014-01-29 13:02:00,67.0,16.0,-100.00,SE,136,5.0,8.0,14,0.00,,,0.00,808.000000,,2014-01-29 21:02:00,
2014-01-29 13:22:00,67.0,16.0,-100.00,SE,136,5.0,8.0,14,0.00,,,0.00,808.000000,,2014-01-29 21:22:00,
2014-01-29 13:53:00,66.0,15.0,-100.00,SSE,165,6.0,11.0,14,0.00,,,0.00,777.000000,,2014-01-29 21:53:00,
2014-01-29 14:03:00,66.0,15.0,-100.00,SSE,165,6.0,11.0,14,0.00,,,0.00,777.000000,,2014-01-29 22:03:00,
2014-01-29 14:12:00,66.0,15.0,-100.00,SSE,165,6.0,11.0,14,0.00,,,0.00,777.000000,,2014-01-29 22:12:00,
2014-01-29 14:22:00,66.0,15.0,-100.00,SSE,165,6.0,11.0,14,0.00,,,0.00,777.000000,,2014-01-29 22:22:00,
2014-01-29 14:53:00,68.0,22.0,-100.00,SE,141,5.0,10.0,17,0.00,,,0.00,635.000000,,2014-01-29 22:53:00,
2014-01-29 15:02:00,68.0,22.0,-100.00,SE,141,5.0,10.0,17,0.00,,,0.00,635.000000,,2014-01-29 23:02:00,
2014-01-29 15:12:00,68.0,22.0,-100.00,SE,141,5.0,10.0,17,0.00,,,0.00,635.000000,,2014-01-29 23:12:00,
2014-01-29 15:22:00,68.0,22.0,-100.00,SE,141,5.0,10.0,17,0.00,,,0.00,635.000000,,2014-01-29 23:22:00,
2014-01-29 15:52:00,72.0,31.0,-100.00,SW,215,6.0,11.0,22,0.00,,,0.00,480.000000,,2014-01-29 23:52:00,
2014-01-29 16:02:00,72.0,31.0,-100.00,SW,215,6.0,11.0,22,0.00,,,0.00,480.000000,,2014-01-30 00:02:00,
2014-01-29 16:12:00,72.0,31.0,-100.00,SW,215,6.0,11.0,22,0.00,,,0.00,480.000000,,2014-01-30 00:12:00,
2014-01-29 16:21:00,72.0,31.0,-100.00,SW,215,6.0,11.0,22,0.00,,,0.00,480.000000,,2014-01-30 00:21:00,
2014-01-29 16:52:00,69.0,32.0,-100.00,SSW,196,9.0,19.0,25,0.00,,,0.00,287.000000,,2014-01-30 00:52:00,
2014-01-29 17:02:00,69.0,32.0,-100.00,SSW,196,9.0,19.0,25,0.00,,,0.00,287.000000,,2014-01-30 01:02:00,
2014-01-29 17:11:00,69.0,32.0,-100.00,SSW,196,9.0,19.0,25,0.00,,,0.00,287.000000,,2014-01-30 01:11:00,
2014-01-29 17:22:00,69.0,32.0,-100.00,SSW,196,9.0,19.0,25,0.00,,,0.00,287.000000,,2014-01-30 01:22:00,
2014-01-29 17:52:00,65.0,30.0,-100.00,West,266,1.0,12.0,27,0.00,,,0.00,63.000000,,2014-01-30 01:52:00,
2014-01-29 18:01:00,65.0,30.0,-100.00,West,266,1.0,12.0,27,0.00,,,0.00,63.000000,,2014-01-30 02:01:00,
2014-01-29 18:11:00,65.0,30.0,-100.00,West,266,1.0,12.0,27,0.00,,,0.00,63.000000,,2014-01-30 02:11:00,
2014-01-29 18:21:00,65.0,30.0,-100.00,West,266,1.0,12.0,27,0.00,,,0.00,63.000000,,2014-01-30 02:21:00,
2014-01-29 19:11:00,64.0,32.0,-100.00,West,267,4.0,17.0,30,0.00,,,-99.99,1.000000,,2014-01-30 03:11:00,
2014-01-29 19:21:00,64.0,32.0,-100.00,West,267,4.0,17.0,30,0.00,,,-99.99,1.000000,,2014-01-30 03:21:00,
2014-01-29 19:53:00,66.0,31.0,-100.00,SE,126,3.0,13.0,27,0.00,,,0.00,0.000000,,2014-01-30 03:53:00,
2014-01-29 20:03:00,66.0,31.0,-100.00,SE,126,3.0,13.0,27,0.00,,,0.00,0.000000,,2014-01-30 04:03:00,
2014-01-29 20:23:00,66.0,31.0,-100.00,SE,126,3.0,13.0,27,0.00,,,0.00,0.000000,,2014-01-30 04:23:00,
2014-01-29 20:53:00,64.0,27.0,-100.00,SSE,160,3.0,13.0,25,0.00,,,0.00,0.000000,,2014-01-30 04:53:00,
2014-01-29 21:02:00,64.0,27.0,-100.00,SSE,160,3.0,13.0,25,0.00,,,0.00,0.000000,,2014-01-30 05:02:00,
2014-01-29 21:12:00,64.0,27.0,-100.00,SSE,160,3.0,13.0,25,0.00,,,0.00,0.000000,,2014-01-30 05:12:00,
2014-01-29 21:22:00,64.0,27.0,-100.00,SSE,160,3.0,13.0,25,0.00,,,0.00,0.000000,,2014-01-30 05:22:00,
2014-01-29 22:52:00,64.0,24.0,-100.00,WSW,247,5.0,20.0,22,-99.99,,,0.00,0.000000,,2014-01-30 06:52:00,
2014-01-29 23:02:00,64.0,24.0,-100.00,WSW,247,5.0,20.0,22,-99.99,,,0.00,0.000000,,2014-01-30 07:02:00,
2014-01-29 23:11:00,64.0,24.0,-100.00,WSW,247,5.0,20.0,22,-99.99,,,0.00,0.000000,,2014-01-30 07:11:00,
2014-01-29 23:21:00,64.0,24.0,-100.00,WSW,247,5.0,20.0,22,-99.99,,,0.00,0.000000,,2014-01-30 07:21:00,
2014-01-29 23:52:00,62.0,28.0,-100.00,SW,232,12.0,23.0,27,0.00,,,0.00,0.000000,,2014-01-30 07:52:00,